Tracking 19562 objects as of 24-Mar-2019
HD Live streaming from Space Station
objects crossing your sky now

COSMOS 2270

Track COSMOS 2270 now!
10-day predictions
COSMOS 2270 is classified as:


NORAD ID: 23001
Int'l Code: 1994-011C
Perigee: 1,412.1 km
Apogee: 1,424.6 km
Inclination: 82.6 °
Period: 114.0 minutes
Semi major axis: 7789 km
RCS: 1.133 m2 (large)
Launch date: February 12, 1994
Source: Commonwealth of Independent States (former USSR) (CIS)
Launch site: PLESETSK MISSILE AND SPACE COMPLEX (PKMTR)
aabbcc
Your satellite tracking list
Your tracking list is empty




NASA's NSSDC Master Catalog

Two Line Element Set (TLE):
1 23001U 94011C   19081.82979833 +.00000017 +00000-0 +36752-4 0  9994
2 23001 082.5763 203.3600 0008002 063.6449 050.4185 12.62851266157077
Source of the keplerian elements: AFSPC